User: anonymous   Login
Location: DaltonSkyGazer Observatory
(42.4858°N, 73.1565°W)
Time: 02:34:25
(UTC-04:00)
Language:

Helios 1B - Orbit

View from above orbital plane
View from above orbital plane
View from above satellite
View from above satellite

Ground track
Ground track

The orbit data is extracted from the following two-line orbital elements,

1 25977U 99064A   15113.84186222  .00002555  00000-0  33397-3 0  9997
2 25977 098.1402 201.3968 0000642 032.8898 327.2353 14.81367376827698
Epoch (UTC): 23 April 2015 20:12:16
Eccentricity: 0.0000642
inclination: 98.1402°
perigee height: 624 km
apogee height: 625 km
right ascension of ascending node: 201.3968°
argument of perigee: 32.8898°
revolutions per day: 14.81367376
mean anomaly at epoch: 327.2353°
orbit number at epoch: 82769

The dashed part of the orbit path shows where the satellite is in the earth's shadow,  

DLR